Year,Month,Day,Hour,Minute,Value (Times are PST for temperature in C)
2011,09,28,00,00,11.20
2011,09,28,00,01,11.30
2011,09,28,00,02,11.30
2011,09,28,00,03,11.30
2011,09,28,00,04,11.30
2011,09,28,00,05,11.30
2011,09,28,00,06,11.30
2011,09,28,00,07,11.30
2011,09,28,00,08,11.30
2011,09,28,00,09,11.30
2011,09,28,00,10,11.30
2011,09,28,00,11,11.30
2011,09,28,00,12,11.30
2011,09,28,00,13,11.30
2011,09,28,00,14,11.30
2011,09,28,00,15,11.30
2011,09,28,00,16,11.20
2011,09,28,00,17,11.20
2011,09,28,00,18,11.20
2011,09,28,00,19,11.10
2011,09,28,00,20,11.00
2011,09,28,00,21,11.00
2011,09,28,00,22,10.90
2011,09,28,00,23,10.90
2011,09,28,00,24,10.80
2011,09,28,00,25,10.80
2011,09,28,00,26,10.70
2011,09,28,00,27,10.70
2011,09,28,00,28,10.60
2011,09,28,00,29,10.50
2011,09,28,00,30,10.50
2011,09,28,00,31,10.40
2011,09,28,00,32,10.40
2011,09,28,00,33,10.40
2011,09,28,00,34,10.40
2011,09,28,00,35,10.40
2011,09,28,00,36,10.40
2011,09,28,00,37,10.50
2011,09,28,00,38,10.50
2011,09,28,00,39,10.60
2011,09,28,00,40,10.60
2011,09,28,00,41,10.70
2011,09,28,00,42,10.70
2011,09,28,00,43,10.80
2011,09,28,00,44,10.90
2011,09,28,00,45,11.00
2011,09,28,00,46,11.10
2011,09,28,00,47,11.10
2011,09,28,00,48,11.10
2011,09,28,00,49,11.10
2011,09,28,00,50,11.10
2011,09,28,00,51,11.10
2011,09,28,00,52,11.20
2011,09,28,00,53,11.30
2011,09,28,00,54,11.40
2011,09,28,00,55,11.50
2011,09,28,00,56,11.60
2011,09,28,00,57,11.70
2011,09,28,00,58,11.60
2011,09,28,00,59,11.50
2011,09,28,01,00,11.40
2011,09,28,01,01,11.30
2011,09,28,01,02,11.20
2011,09,28,01,03,11.20
2011,09,28,01,04,11.20
2011,09,28,01,05,11.10
2011,09,28,01,06,11.10
2011,09,28,01,07,11.10
2011,09,28,01,08,11.10
2011,09,28,01,09,11.10
2011,09,28,01,10,11.10
2011,09,28,01,11,11.10
2011,09,28,01,12,11.10
2011,09,28,01,13,11.10
2011,09,28,01,14,11.20
2011,09,28,01,15,11.20
2011,09,28,01,16,11.20
2011,09,28,01,17,11.30
2011,09,28,01,18,11.30
2011,09,28,01,19,11.40
2011,09,28,01,20,11.40
2011,09,28,01,21,11.50
2011,09,28,01,22,11.50
2011,09,28,01,23,11.60
2011,09,28,01,24,11.60
2011,09,28,01,25,11.60
2011,09,28,01,26,11.60
2011,09,28,01,27,11.60
2011,09,28,01,28,11.60
2011,09,28,01,29,11.50
2011,09,28,01,30,11.50
2011,09,28,01,31,11.40
2011,09,28,01,32,11.30
2011,09,28,01,33,11.30
2011,09,28,01,34,11.20
2011,09,28,01,35,11.20
2011,09,28,01,36,11.10
2011,09,28,01,37,11.10
2011,09,28,01,38,11.00
2011,09,28,01,39,11.00
2011,09,28,01,40,11.00
2011,09,28,01,41,11.00
2011,09,28,01,42,10.90
2011,09,28,01,43,10.90
2011,09,28,01,44,11.00
2011,09,28,01,45,11.00
2011,09,28,01,46,11.10
2011,09,28,01,47,11.10
2011,09,28,01,48,11.10
2011,09,28,01,49,11.10
2011,09,28,01,50,11.00
2011,09,28,01,51,11.00
2011,09,28,01,52,11.00
2011,09,28,01,53,11.00
2011,09,28,01,54,10.90
2011,09,28,01,55,10.90
2011,09,28,01,56,10.90
2011,09,28,01,57,10.90
2011,09,28,01,58,10.90
2011,09,28,01,59,10.80
2011,09,28,02,00,10.80
2011,09,28,02,01,10.80
2011,09,28,02,02,10.80
2011,09,28,02,03,10.80
2011,09,28,02,04,10.80
2011,09,28,02,05,10.70
2011,09,28,02,06,10.70
2011,09,28,02,07,10.70
2011,09,28,02,08,10.60
2011,09,28,02,09,10.60
2011,09,28,02,10,10.60
2011,09,28,02,11,10.60
2011,09,28,02,12,10.50
2011,09,28,02,13,10.50
2011,09,28,02,14,10.50
2011,09,28,02,15,10.60
2011,09,28,02,16,10.60
2011,09,28,02,17,10.60
2011,09,28,02,18,10.60
2011,09,28,02,19,10.60
2011,09,28,02,20,10.60
2011,09,28,02,21,10.60
2011,09,28,02,22,10.60
2011,09,28,02,23,10.60
2011,09,28,02,24,10.50
2011,09,28,02,25,10.40
2011,09,28,02,26,10.30
2011,09,28,02,27,10.20
2011,09,28,02,28,9.90
2011,09,28,02,29,9.70
2011,09,28,02,30,9.50
2011,09,28,02,31,9.40
2011,09,28,02,32,9.30
2011,09,28,02,33,9.20
2011,09,28,02,34,9.20
2011,09,28,02,35,9.10
2011,09,28,02,36,9.10
2011,09,28,02,37,9.00
2011,09,28,02,38,9.00
2011,09,28,02,39,9.00
2011,09,28,02,40,9.00
2011,09,28,02,41,8.90
2011,09,28,02,42,8.90
2011,09,28,02,43,8.90
2011,09,28,02,44,8.80
2011,09,28,02,45,8.70
2011,09,28,02,46,8.70
2011,09,28,02,47,8.60
2011,09,28,02,48,8.60
2011,09,28,02,49,8.60
2011,09,28,02,50,8.50
2011,09,28,02,51,8.50
2011,09,28,02,52,8.60
2011,09,28,02,53,8.50
2011,09,28,02,54,8.50
2011,09,28,02,55,8.60
2011,09,28,02,56,8.60
2011,09,28,02,57,8.60
2011,09,28,02,58,8.60
2011,09,28,02,59,8.60
2011,09,28,03,00,8.60
2011,09,28,03,01,8.60
2011,09,28,03,02,8.70
2011,09,28,03,03,8.70
2011,09,28,03,06,8.90
2011,09,28,03,07,8.90
2011,09,28,03,08,8.80
2011,09,28,03,09,8.80
2011,09,28,03,10,8.80
2011,09,28,03,11,8.80
2011,09,28,03,12,8.80
2011,09,28,03,13,8.70
2011,09,28,03,14,8.60
2011,09,28,03,15,8.50
2011,09,28,03,16,8.40
2011,09,28,03,17,8.30
2011,09,28,03,18,8.30
2011,09,28,03,19,8.30
2011,09,28,03,20,8.30
2011,09,28,03,21,8.20
2011,09,28,03,22,8.10
2011,09,28,03,23,8.10
2011,09,28,03,24,8.00
2011,09,28,03,25,8.00
2011,09,28,03,26,7.90
2011,09,28,03,27,7.90
2011,09,28,03,28,7.90
2011,09,28,03,29,7.90
2011,09,28,03,30,7.80
2011,09,28,03,31,7.80
2011,09,28,03,32,7.80
2011,09,28,03,33,7.80
2011,09,28,03,34,7.80
2011,09,28,03,35,7.70
2011,09,28,03,36,7.70
2011,09,28,03,37,7.70
2011,09,28,03,38,7.70
2011,09,28,03,39,7.70
2011,09,28,03,40,7.70
2011,09,28,03,41,7.70
2011,09,28,03,42,7.70
2011,09,28,03,43,7.80
2011,09,28,03,44,7.80
2011,09,28,03,45,7.80
2011,09,28,03,46,7.80
2011,09,28,03,47,7.80
2011,09,28,03,48,7.70
2011,09,28,03,49,7.70
2011,09,28,03,50,7.70
2011,09,28,03,51,7.60
2011,09,28,03,52,7.60
2011,09,28,03,53,7.60
2011,09,28,03,54,7.60
2011,09,28,03,55,7.60
2011,09,28,03,56,7.60
2011,09,28,03,57,7.70
2011,09,28,03,58,7.70
2011,09,28,03,59,7.80
2011,09,28,04,00,7.80
2011,09,28,04,01,7.80
2011,09,28,04,02,7.90
2011,09,28,04,03,7.90
2011,09,28,04,04,7.90
2011,09,28,04,05,7.90
2011,09,28,04,06,7.90
2011,09,28,04,07,7.90
2011,09,28,04,08,7.80
2011,09,28,04,09,7.80
2011,09,28,04,10,7.70
2011,09,28,04,11,7.70
2011,09,28,04,12,7.70
2011,09,28,04,13,7.60
2011,09,28,04,14,7.60
2011,09,28,04,15,7.60
2011,09,28,04,16,7.50
2011,09,28,04,17,7.50
2011,09,28,04,18,7.40
2011,09,28,04,19,7.40
2011,09,28,04,20,7.30
2011,09,28,04,21,7.30
2011,09,28,04,22,7.20
2011,09,28,04,23,7.20
2011,09,28,04,24,7.20
2011,09,28,04,25,7.20
2011,09,28,04,26,7.20
2011,09,28,04,27,7.20
2011,09,28,04,28,7.20
2011,09,28,04,29,7.20
2011,09,28,04,30,7.20
2011,09,28,04,31,7.20
2011,09,28,04,32,7.30
2011,09,28,04,33,7.40
2011,09,28,04,34,7.40
2011,09,28,04,35,7.50
2011,09,28,04,36,7.60
2011,09,28,04,37,7.60
2011,09,28,04,38,7.70
2011,09,28,04,39,7.80
2011,09,28,04,40,7.90
2011,09,28,04,41,7.90
2011,09,28,04,42,7.90
2011,09,28,04,43,8.00
2011,09,28,04,44,8.00
2011,09,28,04,45,8.00
2011,09,28,04,46,8.10
2011,09,28,04,47,8.10
2011,09,28,04,48,8.10
2011,09,28,04,49,8.00
2011,09,28,04,50,8.00
2011,09,28,04,51,8.00
2011,09,28,04,52,7.90
2011,09,28,04,53,7.90
2011,09,28,04,54,7.90
2011,09,28,04,55,7.90
2011,09,28,04,56,7.80
2011,09,28,04,57,7.80
2011,09,28,04,58,7.80
2011,09,28,04,59,7.80
2011,09,28,05,00,7.80
2011,09,28,05,01,7.70
2011,09,28,05,02,7.70
2011,09,28,05,03,7.70
2011,09,28,05,04,7.70
2011,09,28,05,05,7.60
2011,09,28,05,06,7.60
2011,09,28,05,07,7.60
2011,09,28,05,08,7.60
2011,09,28,05,09,7.60
2011,09,28,05,10,7.70
2011,09,28,05,11,7.70
2011,09,28,05,12,7.80
2011,09,28,05,13,7.90
2011,09,28,05,14,8.00
2011,09,28,05,15,8.00
2011,09,28,05,16,8.00
2011,09,28,05,17,8.10
2011,09,28,05,18,8.10
2011,09,28,05,19,8.20
2011,09,28,05,20,8.20
2011,09,28,05,21,8.10
2011,09,28,05,22,8.00
2011,09,28,05,23,7.90
2011,09,28,05,24,7.80
2011,09,28,05,25,7.80
2011,09,28,05,26,7.80
2011,09,28,05,27,7.80
2011,09,28,05,28,7.80
2011,09,28,05,29,7.80
2011,09,28,05,30,7.70
2011,09,28,05,31,7.70
2011,09,28,05,32,7.70
2011,09,28,05,33,7.70
2011,09,28,05,34,7.70
2011,09,28,05,35,7.70
2011,09,28,05,36,7.70
2011,09,28,05,37,7.70
2011,09,28,05,38,7.70
2011,09,28,05,39,7.70
2011,09,28,05,40,7.70
2011,09,28,05,41,7.70
2011,09,28,05,42,7.70
2011,09,28,05,43,7.70
2011,09,28,05,44,7.70
2011,09,28,05,45,7.70
2011,09,28,05,46,7.60
2011,09,28,05,47,7.60
2011,09,28,05,48,7.60
2011,09,28,05,49,7.60
2011,09,28,05,50,7.60
2011,09,28,05,51,7.60
2011,09,28,05,52,7.60
2011,09,28,05,53,7.60
2011,09,28,05,54,7.70
2011,09,28,05,55,7.70
2011,09,28,05,56,7.80
2011,09,28,05,57,7.90
2011,09,28,05,58,8.00
2011,09,28,05,59,8.10
2011,09,28,06,00,8.10
2011,09,28,06,01,8.20
2011,09,28,06,02,8.20
2011,09,28,06,03,8.20
2011,09,28,06,04,8.30
2011,09,28,06,05,8.30
2011,09,28,06,06,8.30
2011,09,28,06,07,8.30
2011,09,28,06,08,8.30
2011,09,28,06,09,8.30
2011,09,28,06,10,8.30
2011,09,28,06,11,8.30
2011,09,28,06,12,8.30
2011,09,28,06,13,8.40
2011,09,28,06,14,8.40
2011,09,28,06,15,8.40
2011,09,28,06,16,8.40
2011,09,28,06,17,8.40
2011,09,28,06,18,8.40
2011,09,28,06,19,8.50
2011,09,28,06,20,8.50
2011,09,28,06,21,8.60
2011,09,28,06,22,8.60
2011,09,28,06,23,8.60
2011,09,28,06,24,8.60
2011,09,28,06,25,8.60
2011,09,28,06,26,8.60
2011,09,28,06,27,8.60
2011,09,28,06,28,8.60
2011,09,28,06,29,8.70
2011,09,28,06,30,8.70
2011,09,28,06,31,8.70
2011,09,28,06,32,8.80
2011,09,28,06,33,8.80
2011,09,28,06,34,8.90
2011,09,28,06,35,8.90
2011,09,28,06,36,9.00
2011,09,28,06,37,9.00
2011,09,28,06,38,9.00
2011,09,28,06,39,9.00
2011,09,28,06,40,9.00
2011,09,28,06,41,8.90
2011,09,28,06,42,8.90
2011,09,28,06,43,8.90
2011,09,28,06,44,8.90
2011,09,28,06,45,8.90
2011,09,28,06,46,9.00
2011,09,28,06,47,9.00
2011,09,28,06,48,8.90
2011,09,28,06,49,8.90
2011,09,28,06,50,8.90
2011,09,28,06,51,8.90
2011,09,28,06,52,8.90
2011,09,28,06,53,8.90
2011,09,28,06,54,8.90
2011,09,28,06,55,8.90
2011,09,28,06,56,8.90
2011,09,28,06,57,8.90
2011,09,28,06,58,8.90
2011,09,28,06,59,8.90
2011,09,28,07,00,8.80
2011,09,28,07,01,8.80
2011,09,28,07,02,8.80
2011,09,28,07,03,8.70
2011,09,28,07,04,8.60
2011,09,28,07,05,8.60
2011,09,28,07,06,8.50
2011,09,28,07,07,8.40
2011,09,28,07,08,8.30
2011,09,28,07,09,8.30
2011,09,28,07,10,8.20
2011,09,28,07,11,8.20
2011,09,28,07,12,8.20
2011,09,28,07,13,8.20
2011,09,28,07,14,8.20
2011,09,28,07,15,8.10
2011,09,28,07,16,8.20
2011,09,28,07,17,8.20
2011,09,28,07,18,8.20
2011,09,28,07,19,8.30
2011,09,28,07,20,8.30
2011,09,28,07,21,8.30
2011,09,28,07,22,8.40
2011,09,28,07,23,8.40
2011,09,28,07,24,8.40
2011,09,28,07,25,8.50
2011,09,28,07,26,8.50
2011,09,28,07,27,8.60
2011,09,28,07,28,8.60
2011,09,28,07,29,8.60
2011,09,28,07,30,8.60
2011,09,28,07,31,8.60
2011,09,28,07,32,8.70
2011,09,28,07,33,8.70
2011,09,28,07,34,8.70
2011,09,28,07,35,8.80
2011,09,28,07,36,8.80
2011,09,28,07,37,8.90
2011,09,28,07,38,8.90
2011,09,28,07,39,8.90
2011,09,28,07,40,9.00
2011,09,28,07,41,9.00
2011,09,28,07,42,9.10
2011,09,28,07,43,9.10
2011,09,28,07,44,9.10
2011,09,28,07,45,9.10
2011,09,28,07,46,9.20
2011,09,28,07,47,9.20
2011,09,28,07,48,9.20
2011,09,28,07,49,9.20
2011,09,28,07,50,9.30
2011,09,28,07,51,9.30
2011,09,28,07,52,9.30
2011,09,28,07,53,9.40
2011,09,28,07,54,9.40
2011,09,28,07,55,9.40
2011,09,28,07,56,9.50
2011,09,28,07,57,9.50
2011,09,28,07,58,9.40
2011,09,28,07,59,9.20
2011,09,28,08,00,9.10
2011,09,28,08,01,9.00
2011,09,28,08,02,8.80
2011,09,28,08,03,8.70
2011,09,28,08,04,8.70
2011,09,28,08,05,8.60
2011,09,28,08,06,8.60
2011,09,28,08,07,8.60
2011,09,28,08,08,8.70
2011,09,28,08,09,8.70
2011,09,28,08,10,8.70
2011,09,28,08,11,8.70
2011,09,28,08,12,8.80
2011,09,28,08,13,8.80
2011,09,28,08,14,8.90
2011,09,28,08,15,8.90
2011,09,28,08,16,9.00
2011,09,28,08,17,9.10
2011,09,28,08,18,9.10
2011,09,28,08,19,9.20
2011,09,28,08,20,9.20
2011,09,28,08,21,9.20
2011,09,28,08,22,9.30
2011,09,28,08,23,9.40
2011,09,28,08,24,9.50
2011,09,28,08,25,9.60
2011,09,28,08,26,9.70
2011,09,28,08,27,9.70
2011,09,28,08,28,9.70
2011,09,28,08,29,9.80
2011,09,28,08,30,9.80
2011,09,28,08,31,9.80
2011,09,28,08,32,9.80
2011,09,28,08,33,9.90
2011,09,28,08,34,10.00
2011,09,28,08,35,10.10
2011,09,28,08,36,10.20
2011,09,28,08,37,10.30
2011,09,28,08,38,10.40
2011,09,28,08,39,10.60
2011,09,28,08,40,10.70
2011,09,28,08,41,10.80
2011,09,28,08,42,10.90
2011,09,28,08,43,11.00
2011,09,28,08,44,11.10
2011,09,28,08,45,11.10
2011,09,28,08,46,11.20
2011,09,28,08,47,11.20
2011,09,28,08,48,11.30
2011,09,28,08,49,11.30
2011,09,28,08,50,11.20
2011,09,28,08,51,11.20
2011,09,28,08,52,11.20
2011,09,28,08,53,11.10
2011,09,28,08,54,11.00
2011,09,28,08,55,11.00
2011,09,28,08,56,10.80
2011,09,28,08,57,10.80
2011,09,28,08,58,10.80
2011,09,28,08,59,10.70
2011,09,28,09,00,10.70
2011,09,28,09,01,10.70
2011,09,28,09,02,10.70
2011,09,28,09,03,10.70
2011,09,28,09,04,10.70
2011,09,28,09,05,10.70
2011,09,28,09,06,10.70
2011,09,28,09,07,10.70
2011,09,28,09,08,10.70
2011,09,28,09,09,10.70
2011,09,28,09,10,10.70
2011,09,28,09,11,10.70
2011,09,28,09,12,10.70
2011,09,28,09,13,10.70
2011,09,28,09,14,10.70
2011,09,28,09,15,10.70
2011,09,28,09,16,10.70
2011,09,28,09,17,10.80
2011,09,28,09,18,10.80
2011,09,28,09,19,10.80
2011,09,28,09,20,10.80
2011,09,28,09,21,10.80
2011,09,28,09,22,10.80
2011,09,28,09,23,10.90
2011,09,28,09,24,10.90
2011,09,28,09,25,10.90
2011,09,28,09,26,10.90
2011,09,28,09,27,10.90
2011,09,28,09,28,10.90
2011,09,28,09,29,10.90
2011,09,28,09,30,10.90
2011,09,28,09,31,10.90
2011,09,28,09,32,11.00
2011,09,28,09,33,11.00
2011,09,28,09,34,11.00
2011,09,28,09,35,11.00
2011,09,28,09,36,11.10
2011,09,28,09,37,11.10
2011,09,28,09,38,11.10
2011,09,28,09,39,11.10
2011,09,28,09,40,11.10
2011,09,28,09,41,11.10
2011,09,28,09,42,11.10
2011,09,28,09,43,11.10
2011,09,28,09,44,11.00
2011,09,28,09,45,11.00
2011,09,28,09,46,11.00
2011,09,28,09,47,11.00
2011,09,28,09,48,11.00
2011,09,28,09,49,11.00
2011,09,28,09,50,11.10
2011,09,28,09,51,11.10
2011,09,28,09,52,11.10
2011,09,28,09,53,11.10
2011,09,28,09,54,11.10
2011,09,28,09,55,11.10
2011,09,28,09,56,11.00
2011,09,28,09,57,11.00
2011,09,28,09,58,10.90
2011,09,28,09,59,10.90
2011,09,28,10,00,10.80
2011,09,28,10,01,10.80
2011,09,28,10,02,10.90
2011,09,28,10,03,10.90
2011,09,28,10,04,11.00
2011,09,28,10,05,11.00
2011,09,28,10,06,11.00
2011,09,28,10,07,11.10
2011,09,28,10,08,11.10
2011,09,28,10,09,11.10
2011,09,28,10,10,11.10
2011,09,28,10,11,11.10
2011,09,28,10,12,11.00
2011,09,28,10,13,11.00
2011,09,28,10,14,10.90
2011,09,28,10,15,10.90
2011,09,28,10,16,11.00
2011,09,28,10,17,11.00
2011,09,28,10,18,11.10
2011,09,28,10,19,11.10
2011,09,28,10,20,11.00
2011,09,28,10,21,11.00
2011,09,28,10,22,10.90
2011,09,28,10,23,10.90
2011,09,28,10,24,10.90
2011,09,28,10,25,10.90
2011,09,28,10,26,11.00
2011,09,28,10,27,10.90
2011,09,28,10,28,11.00
2011,09,28,10,29,11.00
2011,09,28,10,30,11.00
2011,09,28,10,31,11.00
2011,09,28,10,32,10.90
2011,09,28,10,33,11.00
2011,09,28,10,34,11.00
2011,09,28,10,35,11.00
2011,09,28,10,36,11.00
2011,09,28,10,37,11.00
2011,09,28,10,38,10.90
2011,09,28,10,39,11.00
2011,09,28,10,40,11.00
2011,09,28,10,41,11.10
2011,09,28,10,42,11.10
2011,09,28,10,43,11.20
2011,09,28,10,44,11.20
2011,09,28,10,45,11.20
2011,09,28,10,46,11.20
2011,09,28,10,47,11.10
2011,09,28,10,48,11.10
2011,09,28,10,49,11.00
2011,09,28,10,50,11.00
2011,09,28,10,51,10.90
2011,09,28,10,52,10.80
2011,09,28,10,53,10.80
2011,09,28,10,54,10.80
2011,09,28,10,55,10.80
2011,09,28,10,56,10.80
2011,09,28,10,57,10.80
2011,09,28,10,58,10.80
2011,09,28,10,59,10.80
2011,09,28,11,00,10.80
2011,09,28,11,01,10.80
2011,09,28,11,02,10.80
2011,09,28,11,03,10.80
2011,09,28,11,04,10.80
2011,09,28,11,05,10.80
2011,09,28,11,06,10.70
2011,09,28,11,07,10.70
2011,09,28,11,08,10.70
2011,09,28,11,09,10.70
2011,09,28,11,10,10.70
2011,09,28,11,11,10.70
2011,09,28,11,12,10.80
2011,09,28,11,13,10.80
2011,09,28,11,14,10.80
2011,09,28,11,15,10.80
2011,09,28,11,16,10.80
2011,09,28,11,17,10.80
2011,09,28,11,18,10.90
2011,09,28,11,19,10.90
2011,09,28,11,20,10.90
2011,09,28,11,21,10.80
2011,09,28,11,22,10.80
2011,09,28,11,23,10.80
2011,09,28,11,24,10.80
2011,09,28,11,25,10.80
2011,09,28,11,26,10.80
2011,09,28,11,27,10.80
2011,09,28,11,28,10.90
2011,09,28,11,29,10.90
2011,09,28,11,30,10.90
2011,09,28,11,31,11.00
2011,09,28,11,32,11.00
2011,09,28,11,33,11.00
2011,09,28,11,34,11.00
2011,09,28,11,35,11.00
2011,09,28,11,36,11.00
2011,09,28,11,37,11.00
2011,09,28,11,38,11.00
2011,09,28,11,39,11.10
2011,09,28,11,40,11.10
2011,09,28,11,41,11.10
2011,09,28,11,42,11.10
2011,09,28,11,43,11.10
2011,09,28,11,44,11.10
2011,09,28,11,45,11.10
2011,09,28,11,46,11.10
2011,09,28,11,47,11.20
2011,09,28,11,48,11.20
2011,09,28,11,49,11.20
2011,09,28,11,50,11.30
2011,09,28,11,51,11.30
2011,09,28,11,52,11.40
2011,09,28,11,53,11.40
2011,09,28,11,54,11.40
2011,09,28,11,55,11.40
2011,09,28,11,56,11.50
2011,09,28,11,57,11.50
2011,09,28,11,58,11.50
2011,09,28,11,59,11.40
2011,09,28,12,00,11.40
2011,09,28,12,01,11.30
2011,09,28,12,02,11.30
2011,09,28,12,03,11.20
2011,09,28,12,04,11.20
2011,09,28,12,05,11.20
2011,09,28,12,06,11.20
2011,09,28,12,07,11.20
2011,09,28,12,08,11.20
2011,09,28,12,09,11.20
2011,09,28,12,10,11.30
2011,09,28,12,11,11.30
2011,09,28,12,12,11.30
2011,09,28,12,13,11.30
2011,09,28,12,14,11.30
2011,09,28,12,15,11.30
2011,09,28,12,16,11.30
2011,09,28,12,17,11.30
2011,09,28,12,18,11.20
2011,09,28,12,19,11.20
2011,09,28,12,20,11.20
2011,09,28,12,21,11.20
2011,09,28,12,22,11.20
2011,09,28,12,23,11.20
2011,09,28,12,24,11.20
2011,09,28,12,25,11.30
2011,09,28,12,26,11.30
2011,09,28,12,27,11.30
2011,09,28,12,28,11.30
2011,09,28,12,29,11.30
2011,09,28,12,30,11.30
2011,09,28,12,31,11.30
2011,09,28,12,32,11.30
2011,09,28,12,33,11.30
2011,09,28,12,34,11.30
2011,09,28,12,35,11.20
2011,09,28,12,36,11.20
2011,09,28,12,37,11.20
2011,09,28,12,38,11.20
2011,09,28,12,39,11.20
2011,09,28,12,40,11.20
2011,09,28,12,41,11.20
2011,09,28,12,42,11.20
2011,09,28,12,43,11.20
2011,09,28,12,44,11.20
2011,09,28,12,45,11.30
2011,09,28,12,46,11.30
2011,09,28,12,47,11.40
2011,09,28,12,48,11.40
2011,09,28,12,49,11.40
2011,09,28,12,50,11.50
2011,09,28,12,51,11.50
2011,09,28,12,52,11.50
2011,09,28,12,53,11.50
2011,09,28,12,54,11.40
2011,09,28,12,55,11.40
2011,09,28,12,56,11.40
2011,09,28,12,57,11.50
2011,09,28,12,58,11.60
2011,09,28,12,59,11.60
2011,09,28,13,00,11.70
2011,09,28,13,01,11.70
2011,09,28,13,02,11.70
2011,09,28,13,03,11.70
2011,09,28,13,04,11.70
2011,09,28,13,05,11.80
2011,09,28,13,06,11.80
2011,09,28,13,07,11.80
2011,09,28,13,08,11.80
2011,09,28,13,09,11.90
2011,09,28,13,10,11.90
2011,09,28,13,11,11.90
2011,09,28,13,12,11.90
2011,09,28,13,13,11.90
2011,09,28,13,14,11.90
2011,09,28,13,15,11.90
2011,09,28,13,16,11.90
2011,09,28,13,17,12.00
2011,09,28,13,18,12.10
2011,09,28,13,19,12.10
2011,09,28,13,20,12.10
2011,09,28,13,21,12.20
2011,09,28,13,22,12.20
2011,09,28,13,23,12.20
2011,09,28,13,24,12.20
2011,09,28,13,25,12.20
2011,09,28,13,26,12.20
2011,09,28,13,27,12.20
2011,09,28,13,28,12.10
2011,09,28,13,29,12.10
2011,09,28,13,30,12.10
2011,09,28,13,31,12.20
2011,09,28,13,32,12.20
2011,09,28,13,33,12.20
2011,09,28,13,34,12.20
2011,09,28,13,35,12.30
2011,09,28,13,36,12.30
2011,09,28,13,37,12.30
2011,09,28,13,38,12.30
2011,09,28,13,39,12.30
2011,09,28,13,40,12.30
2011,09,28,13,41,12.30
2011,09,28,13,42,12.30
2011,09,28,13,43,12.30
2011,09,28,13,44,12.30
2011,09,28,13,45,12.20
2011,09,28,13,46,12.20
2011,09,28,13,47,12.20
2011,09,28,13,48,12.20
2011,09,28,13,49,12.20
2011,09,28,13,50,12.30
2011,09,28,13,51,12.30
2011,09,28,13,52,12.30
2011,09,28,13,53,12.30
2011,09,28,13,54,12.40
2011,09,28,13,55,12.40
2011,09,28,13,56,12.40
2011,09,28,13,57,12.30
2011,09,28,13,58,12.30
2011,09,28,13,59,12.30
2011,09,28,14,00,12.30
2011,09,28,14,01,12.30
2011,09,28,14,02,12.30
2011,09,28,14,03,12.30
2011,09,28,14,04,12.30
2011,09,28,14,05,12.20
2011,09,28,14,06,12.20
2011,09,28,14,07,12.30
2011,09,28,14,08,12.30
2011,09,28,14,09,12.30
2011,09,28,14,10,12.30
2011,09,28,14,11,12.30
2011,09,28,14,12,12.30
2011,09,28,14,13,12.20
2011,09,28,14,14,12.20
2011,09,28,14,15,12.20
2011,09,28,14,16,12.20
2011,09,28,14,17,12.20
2011,09,28,14,18,12.20
2011,09,28,14,19,12.20
2011,09,28,14,20,12.20
2011,09,28,14,21,12.20
2011,09,28,14,22,12.20
2011,09,28,14,23,12.20
2011,09,28,14,24,12.20
2011,09,28,14,25,12.20
2011,09,28,14,26,12.20
2011,09,28,14,27,12.20
2011,09,28,14,28,12.20
2011,09,28,14,29,12.20
2011,09,28,14,30,12.20
2011,09,28,14,31,12.20
2011,09,28,14,32,12.20
2011,09,28,14,33,12.10
2011,09,28,14,34,12.10
2011,09,28,14,35,12.10
2011,09,28,14,36,12.10
2011,09,28,14,37,12.10
2011,09,28,14,38,12.10
2011,09,28,14,39,12.20
2011,09,28,14,40,12.20
2011,09,28,14,41,12.20
2011,09,28,14,42,12.10
2011,09,28,14,43,12.10
2011,09,28,14,44,12.10
2011,09,28,14,45,12.10
2011,09,28,14,46,12.20
2011,09,28,14,47,12.10
2011,09,28,14,48,12.10
2011,09,28,14,49,12.20
2011,09,28,14,50,12.20
2011,09,28,14,51,12.40
2011,09,28,14,52,12.50
2011,09,28,14,53,12.50
2011,09,28,14,54,12.50
2011,09,28,14,55,12.50
2011,09,28,14,56,12.50
2011,09,28,14,57,12.40
2011,09,28,14,58,12.40
2011,09,28,14,59,12.40
2011,09,28,15,00,12.40
2011,09,28,15,01,12.40
2011,09,28,15,02,12.40
2011,09,28,15,03,12.50
2011,09,28,15,04,12.50
2011,09,28,15,05,12.50
2011,09,28,15,06,12.60
2011,09,28,15,07,12.60
2011,09,28,15,08,12.70
2011,09,28,15,09,12.70
2011,09,28,15,10,12.70
2011,09,28,15,11,12.60
2011,09,28,15,12,12.60
2011,09,28,15,13,12.60
2011,09,28,15,14,12.60
2011,09,28,15,15,12.60
2011,09,28,15,16,12.60
2011,09,28,15,17,12.60
2011,09,28,15,18,12.50
2011,09,28,15,19,12.50
2011,09,28,15,20,12.50
2011,09,28,15,21,12.60
2011,09,28,15,22,12.60
2011,09,28,15,23,12.60
2011,09,28,15,24,12.60
2011,09,28,15,25,12.50
2011,09,28,15,26,12.50
2011,09,28,15,27,12.40
2011,09,28,15,28,12.40
2011,09,28,15,29,12.30
2011,09,28,15,30,12.40
2011,09,28,15,31,12.40
2011,09,28,15,32,12.30
2011,09,28,15,33,12.40
2011,09,28,15,34,12.30
2011,09,28,15,35,12.40
2011,09,28,15,36,12.40
2011,09,28,15,37,12.40
2011,09,28,15,38,12.50
2011,09,28,15,39,12.50
2011,09,28,15,40,12.50
2011,09,28,15,41,12.40
2011,09,28,15,42,12.40
2011,09,28,15,43,12.40
2011,09,28,15,44,12.40
2011,09,28,15,45,12.50
2011,09,28,15,46,12.50
2011,09,28,15,47,12.50
2011,09,28,15,48,12.60
2011,09,28,15,49,12.50
2011,09,28,15,50,12.50
2011,09,28,15,51,12.50
2011,09,28,15,52,12.50
2011,09,28,15,53,12.50
2011,09,28,15,54,12.50
2011,09,28,15,55,12.50
2011,09,28,15,56,12.40
2011,09,28,15,57,12.40
2011,09,28,15,58,12.40
2011,09,28,15,59,12.40
2011,09,28,16,00,12.40
2011,09,28,16,01,12.50
2011,09,28,16,02,12.60
2011,09,28,16,03,12.60
2011,09,28,16,04,12.70
2011,09,28,16,05,12.70
2011,09,28,16,06,12.70
2011,09,28,16,07,12.60
2011,09,28,16,08,12.60
2011,09,28,16,09,12.60
2011,09,28,16,10,12.60
2011,09,28,16,11,12.50
2011,09,28,16,12,12.50
2011,09,28,16,13,12.40
2011,09,28,16,14,12.40
2011,09,28,16,15,12.30
2011,09,28,16,16,12.30
2011,09,28,16,17,12.30
2011,09,28,16,18,12.30
2011,09,28,16,19,12.40
2011,09,28,16,20,12.40
2011,09,28,16,21,12.40
2011,09,28,16,22,12.40
2011,09,28,16,23,12.50
2011,09,28,16,24,12.50
2011,09,28,16,25,12.60
2011,09,28,16,26,12.60
2011,09,28,16,27,12.60
2011,09,28,16,28,12.60
2011,09,28,16,29,12.60
2011,09,28,16,30,12.60
2011,09,28,16,31,12.60
2011,09,28,16,32,12.60
2011,09,28,16,33,12.60
2011,09,28,16,34,12.60
2011,09,28,16,35,12.60
2011,09,28,16,36,12.60
2011,09,28,16,37,12.60
2011,09,28,16,38,12.60
2011,09,28,16,39,12.60
2011,09,28,16,40,12.70
2011,09,28,16,41,12.70
2011,09,28,16,42,12.70
2011,09,28,16,43,12.80
2011,09,28,16,44,12.80
2011,09,28,16,45,12.80
2011,09,28,16,46,12.80
2011,09,28,16,47,12.80
2011,09,28,16,48,12.70
2011,09,28,16,49,12.70
2011,09,28,16,50,12.60
2011,09,28,16,51,12.60
2011,09,28,16,52,12.70
2011,09,28,16,53,12.70
2011,09,28,16,54,12.70
2011,09,28,16,55,12.70
2011,09,28,16,56,12.60
2011,09,28,16,57,12.60
2011,09,28,16,58,12.60
2011,09,28,16,59,12.60
2011,09,28,17,00,12.60
2011,09,28,17,01,12.50
2011,09,28,17,02,12.50
2011,09,28,17,03,12.50
2011,09,28,17,04,12.50
2011,09,28,17,05,12.60
2011,09,28,17,06,12.60
2011,09,28,17,07,12.60
2011,09,28,17,08,12.60
2011,09,28,17,09,12.60
2011,09,28,17,10,12.60
2011,09,28,17,11,12.60
2011,09,28,17,12,12.50
2011,09,28,17,13,12.50
2011,09,28,17,14,12.50
2011,09,28,17,15,12.50
2011,09,28,17,16,12.50
2011,09,28,17,17,12.50
2011,09,28,17,18,12.50
2011,09,28,17,19,12.50
2011,09,28,17,20,12.50
2011,09,28,17,21,12.60
2011,09,28,17,22,12.60
2011,09,28,17,23,12.60
2011,09,28,17,24,12.60
2011,09,28,17,25,12.60
2011,09,28,17,26,12.60
2011,09,28,17,27,12.70
2011,09,28,17,28,12.70
2011,09,28,17,29,12.70
2011,09,28,17,30,12.70
2011,09,28,17,31,12.80
2011,09,28,17,32,12.80
2011,09,28,17,33,12.80
2011,09,28,17,34,12.80
2011,09,28,17,35,12.80
2011,09,28,17,36,12.90
2011,09,28,17,37,12.90